Location: ???????????
(54.5822°N, 39.1075°E)
Time: 06:04:33
(UTC+00:00)

Cosmos 1953 - Pass Details

Date: 19 May 2025
Orbit: 485 x 502 km, 82.5° (Epoch: 15 June)

Event Time Altitude Azimuth Distance (km) Brightness Sun altitude
Rises 22:18:05 0° 353° (N) 2,572 7.1 -14.4°
Reaches altitude 10° 22:20:18 10° 2° (N) 1,686 6.1 -14.3°
Maximum altitude 22:23:46 38° 72° (ENE) 766 3.3 -14.2°
Enters shadow 22:27:08 11° 141° (SE) 1,645 4.4 -14.1°
